KZ1X Weather Reports


time (UTC)temp
F
wind
direction
speed
knots
gust
knots
rain 1hr
in
rain 24hr
in
rain mn
in
humidity
%
barometer
mb
20260506143037 66 0 0.0 0.0 0.00 0.00 0.00 77 1013.8
20260506141536 66 0 0.0 0.0 0.00 0.00 0.00 79 1013.9
20260506140046 65 0 0.0 0.0 0.00 0.00 0.00 79 1014.2
20260506134608 64 0 0.0 0.0 0.00 0.00 0.00 80 1014.4
20260506133040 64 0 0.0 0.0 0.00 0.00 0.00 80 1014.6
20260506131546 64 0 0.0 0.0 0.00 0.00 0.00 80 1014.9
20260506130037 63 0 0.0 0.0 0.00 0.00 0.00 80 1015.0
20260506124537 63 0 0.0 0.0 0.00 0.00 0.00 80 1014.6
20260506123045 64 0 0.0 0.0 0.00 0.00 0.00 80 1014.5
20260506121539 64 0 0.0 0.0 0.00 0.00 0.00 80 1014.4
20260506120037 63 0 0.0 0.0 0.00 0.00 0.00 80 1014.1
20260506114544 63 0 0.0 0.0 0.00 0.00 0.00 81 1014.1
20260506113039 62 0 0.0 0.0 0.00 0.00 0.00 81 1013.9
20260506111537 62 0 0.0 0.0 0.00 0.00 0.00 82 1014.1
20260506110041 62 0 0.0 0.0 0.00 0.00 0.00 82 1014.0
20260506104542 61 0 0.0 0.0 0.00 0.00 0.00 82 1014.0
20260506103037 62 0 0.0 0.0 0.00 0.00 0.00 81 1013.8
20260506101537 62 0 0.0 0.0 0.00 0.00 0.00 82 1013.7
20260506100036 61 0 0.0 0.0 0.00 0.00 0.00 82 1013.8
20260506094536 61 0 0.0 0.0 0.00 0.00 0.00 82 1014.1
20260506093043 61 0 0.0 0.0 0.00 0.00 0.00 83 1014.1
20260506091541 61 0 0.0 0.0 0.00 0.00 0.00 83 1014.4
20260506090040 62 0 0.0 0.0 0.00 0.00 0.00 82 1014.6
20260506084537 62 0 0.0 0.0 0.00 0.00 0.00 82 1014.7
20260506083037 62 0 0.0 0.0 0.00 0.00 0.00 82 1014.4
20260506081543 62 0 0.0 0.0 0.00 0.00 0.00 82 1014.3
20260506073039 62 0 0.0 0.0 0.00 0.00 0.00 81 1014.3
20260506071537 63 0 0.0 0.0 0.00 0.00 0.00 80 1014.4
20260506061542 63 0 0.0 0.0 0.00 0.00 0.00 79 1014.7
20260506044542 65 0 0.0 0.0 0.00 0.00 0.00 76 1015.6
20260506043038 65 0 0.0 0.0 0.00 0.00 0.00 76 1015.4
20260506041539 66 0 0.0 0.0 0.00 0.00 0.00 75 1015.2
20260506040036 66 0 0.0 0.0 0.00 0.00 0.00 74 1015.2
20260506034535 66 0 0.0 0.0 0.00 0.00 0.00 73 1015.2
20260506033041 67 0 0.0 0.0 0.00 0.00 0.00 72 1015.1
20260506031541 67 0 0.0 0.0 0.00 0.00 0.00 71 1015.4
20260506030037 68 0 0.0 0.0 0.00 0.00 0.00 70 1015.4
20260506024544 68 0 0.0 0.0 0.00 0.00 0.00 69 1015.4
20260506023044 69 0 0.0 0.0 0.00 0.00 0.00 68 1015.4
20260506021541 69 0 0.0 0.0 0.00 0.00 0.00 67 1015.3
20260506020046 69 0 0.0 0.0 0.00 0.00 0.00 66 1015.1
20260506014537 69 0 0.0 0.0 0.00 0.00 0.00 64 1014.9
20260506013038 69 0 0.0 0.0 0.00 0.00 0.00 63 1014.6
20260506011600 68 0 0.0 0.0 0.00 0.00 0.00 62 1014.5
20260506010036 69 0 0.0 0.0 0.00 0.00 0.00 62 1014.4
20260506004557 70 0 0.0 0.0 0.00 0.00 0.00 60 1014.2
20260506003039 71 0 0.0 0.0 0.00 0.00 0.00 59 1014.1
20260506001542 72 0 0.0 0.0 0.00 0.00 0.00 57 1014.0
20260506000106 73 0 0.0 0.0 0.00 0.00 0.00 55 1013.8
20260505234544 74 0 0.0 0.0 0.00 0.00 0.00 53 1013.7
20260505233037 75 0 0.0 2.6 0.00 0.00 0.00 52 1013.6
20260505231543 76 0 0.0 2.6 0.00 0.00 0.00 50 1013.5
20260505230059 76 214 0.0 2.6 0.00 0.00 0.00 49 1013.5
20260505224543 77 272 0.9 2.6 0.00 0.00 0.00 48 1013.6
20260505223040 77 252 0.9 2.6 0.00 0.00 0.00 48 1013.6
20260505221537 78 216 0.9 2.6 0.00 0.00 0.00 45 1013.8
20260505220039 78 206 0.0 1.7 0.00 0.00 0.00 47 1013.9
20260505214542 78 201 0.0 2.6 0.00 0.00 0.00 46 1013.8
20260505213041 78 228 0.9 2.6 0.00 0.00 0.00 47 1013.9
20260505211542 79 240 0.9 2.6 0.00 0.00 0.00 45 1013.9
20260505210037 79 219 0.0 3.5 0.00 0.00 0.00 45 1014.0
20260505204546 80 153 0.9 2.6 0.00 0.00 0.00 43 1014.1
20260505203053 80 250 0.9 3.5 0.00 0.00 0.00 43 1014.2
20260505201546 80 0 0.0 2.6 0.00 0.00 0.00 44 1014.3
20260505200038 81 223 0.9 6.1 0.00 0.00 0.00 42 1014.4
20260505194550 82 240 0.9 3.5 0.00 0.00 0.00 43 1014.4
20260505193038 81 119 0.9 2.6 0.00 0.00 0.00 44 1014.8
20260505191551 81 265 0.9 2.6 0.00 0.00 0.00 43 1015.3
20260505190044 81 157 0.9 3.5 0.00 0.00 0.00 43 1015.3
20260505184541 80 203 0.9 3.5 0.00 0.00 0.00 43 1015.6
20260505183040 82 262 0.9 2.6 0.00 0.00 0.00 42 1015.7
20260505181538 82 274 1.7 4.3 0.00 0.00 0.00 42 1015.9
20260505180045 82 252 0.0 3.5 0.00 0.00 0.00 43 1016.0
20260505174544 81 314 0.9 2.6 0.00 0.00 0.00 45 1016.2
20260505173040 81 278 0.9 2.6 0.00 0.00 0.00 42 1016.2
20260505171542 81 233 0.9 3.5 0.00 0.00 0.00 41 1016.2
20260505170037 81 146 0.9 2.6 0.00 0.00 0.00 42 1016.4
20260505164537 80 196 0.9 2.6 0.00 0.00 0.00 44 1016.7
20260505163042 79 246 0.0 1.7 0.00 0.00 0.00 48 1016.8
20260505161541 78 252 0.9 2.6 0.00 0.00 0.00 50 1016.9
20260505153039 76 221 0.0 1.7 0.00 0.00 0.00 55 1017.2
20260505151537 74 182 0.0 1.7 0.00 0.00 0.00 59 1017.3
20260505150104 71 221 0.0 1.7 0.00 0.00 0.00 63 1017.1